Погода в Новом Быте

Россия / Владимирская область     55°58′27″N   41°37′20″E
темп.,
°C
ветер,
м/с
пор.,
м/с
влажн.,
%
обл.,
%
осадки,
мм/ч
давл.,
гПа
погр.,
м
21 января, пт
пт2100:00−9ю61591100 0.1 1007562
03:00−9ю51492100 0.1 1007518
06:00−9ююв51394100 0.1 1006507
09:00−9ююв51394100 0.8 1006527
12:00−8ююв61493100 0.8 1005589
15:00−7ююв61493100 1.3 1004766
18:00−7ююв51393100 0.8 1003756
21:00−7юв51293100 1.0 1003581
22 января, сб
сб2200:00−7юв41195100 0.3 1003505
03:00−6юв4995100 1.6 1004438
06:00−7ююв4995100 0.1 1005322
09:00−9юв4109599 0.1 1008328
12:00−7юв4994100 0.1 1010439
15:00−6юв4894100 0.2 1011514
18:00−7юв399595 0.1 1014393
21:00−9юв269675 0.2 1016182
23 января, вс
вс2300:00−14юв249994 0.0 101957
03:00−18юв11100100 0.1 102112
06:00−20юв11100100 0.0 10239
09:00−20юв11100100 0.1 10269
12:00−10ююв019592 0.1 1028109
15:00−9в119761 0.1 102912
18:00−17всв0010081 0.0 10339
21:00−19с11100100 0.0 10349
24 января, пн
пн2400:00−20с11100100 0.0 10369
03:00−20ссв11100100 0.0 10379
06:00−20с22100100 0.0 103716
09:00−21св11100100 0.0 103811
12:00−10в129485 0.0 1038137
15:00−8св11965 0.0 103716
18:00−17св1110088 0.0 10379
21:00−19юв11100100 0.0 10379
25 января, вт
вт2500:00−19ююз00100100 0.0 10369
03:00−19ю21100100 0.1 103413
06:00−20ю22100100 0.0 103313
09:00−20ююз23100100 0.1 103239
12:00−10ююз36915 0.0 1029202
15:00−9ю389316 0.0 1027290
18:00−13ююз3109754 0.0 1026182
21:00−14ююз312955 0.0 1025225